Orbital Elements at Epoch 2459200.5 (2020-Dec-17.0) TDB
Reference: JPL 33 (heliocentric ecliptic J2000)
Element | Value | Uncertainty (1-sigma) | Units |
e | .1556392069457727 | 3.4532e-08 | |
a | 2.430305658207968 | 7.3385e-09 | au |
q | 2.052054812928656 | 8.3816e-08 | au |
i | 5.405881490756371 | 3.5099e-06 | deg |
node | 234.09457980 | 3.874e-05 | deg |
peri | 92.55897956549323 | 4.0488e-05 | deg |
M | 254.1801690402368 | 1.3611e-05 | deg |
tp | 2459607.275077562785 (2022-Jan-27.77507756) | 5.3198e-05 | TDB |
period | 1383.852408328684 3.79 | 6.268e-06 1.716e-08 | d yr |
n | .2601433489824119 | 1.1783e-09 | deg/d |
Q | 2.80855650348728 | 8.4806e-09 | au |
|
| | Orbit Determination Parameters
Additional Information
|